Погода в Янышах

Россия / Чувашская Республика     55°55′34″N   46°57′28″E
темп.,
°C
ветер,
м/с
пор.,
м/с
влажн.,
%
обл.,
%
осадки,
мм/ч
давл.,
гПа
погр.,
м
26 июня, вс
вс2600:00+15ссз310830 0.0 1015178
03:00+12ссз37850 0.0 1017124
06:00+14с410730 0.0 1018379
09:00+17с68490 0.0 10191221
12:00+20с68430 0.0 10191653
15:00+21с68445 0.0 10191816
18:00+20с47580 0.0 1019435
21:00+15сз22680 0.0 101911
27 июня, пн
пн2700:00+14з22720 0.0 102012
03:00+13з34755 0.0 101956
06:00+16з497494 0.0 1019236
09:00+20з7126963 0.5 1016495
12:00+25зсз7106725 0.9 10151146
15:00+25ссз69693 3.1 10141290
18:00+22ссв59720 1.1 1014848
21:00+16св510712 1.1 1017281
28 июня, вт
вт2800:00+11с33770 0.0 101832
03:00+9с34835 0.0 101858
06:00+11ссв34780 0.0 1019236
09:00+15ссв475843 0.0 10191733
12:00+16с674815 0.1 10202008
15:00+17с67435 0.1 10201959
18:00+16с47555 0.0 1021678
21:00+10ссз22665 0.0 102216
29 июня, ср
ср2900:00+8ссз33765 0.0 102229
03:00+7ссз347861 0.0 102360
06:00+11ссз366837 0.0 1023214
09:00+16ссз454859 0.0 1022900
12:00+19ссз46405 0.0 10211942
15:00+20ссз56385 0.0 10202139
18:00+18ссз365596 0.0 1019322
21:00+13сз226244 0.0 101912
30 июня, чт
чт3000:00+12зсз3559100 0.0 101868
03:00+11сз3867100 0.0 1017149
06:00+13зсз497195 0.0 1016270
09:00+16сз61060100 0.0 1015592
12:00+17сз696198 0.0 1014977
15:00+17ссз61065100 0.2 1013703
18:00+17сз227295 0.2 101340
21:00+14св487426 0.2 1014200